Location: �terpigny
(49.8910°N, 2.9249°E)
Time: 22:44:15
(UTC+00:00)

DIWATA 2B (PO-101) - Pass Details

Date: 02 July 2022
Orbit: 583 x 599 km, 98.0° (Epoch: 16 August)

Event Time Altitude Azimuth Distance (km) Brightness Sun altitude
Exits shadow 01:47:38 16° 178° (S) 1,591 ? -12.7°
Maximum altitude 01:50:57 64° 258° (WSW) 668 ? -12.5°
Drops below altitude 10° 01:55:10 10° 340° (NNW) 1,952 ? -12.1°
Sets 01:57:22 0° 344° (NNW) 2,859 ? -12.0°
